User: anonymous   Login
Location: ??
(35.5052°N, 139.7262°E)
Time: 22:51:39
(UTC+00:00)
Language:

Meteor 2-3 Rocket - Orbit

View from above orbital plane
View from above orbital plane
View from above satellite
View from above satellite

Ground track
Ground track

The orbit data is extracted from the following two-line orbital elements,

1 10515U 77117B   21262.32586394  .00000104  00000-0  52603-4 0  9993
2 10515  81.2443 207.7358 0028656 167.6682 192.5196 14.08717509248493
Epoch (UTC): 19 September 2021 07:49:14
Eccentricity: 0.0028656
inclination: 81.2443°
perigee height: 843 km
apogee height: 884 km
right ascension of ascending node: 207.7358°
argument of perigee: 167.6682°
revolutions per day: 14.08717509
mean anomaly at epoch: 192.5196°
orbit number at epoch: 24849

The dashed part of the orbit path shows where the satellite is in the earth's shadow,  

DLR